Radiation Dose at Monitoring Post of Fukushima Daiichi Nuclear Power Station
Date,Time,MP-1(microSv/h),MP-2(microSv/h),MP-3(microSv/h),MP-4(microSv/h),MP-5(microSv/h),MP-6(microSv/h),MP-7(microSv/h),MP-8(microSv/h),Wind Direction,Wind Velocity(m/s),Rain
2013/10/20,00:00,2.7,4.8,5.4,4.9,5.1,2.7,2.9,3.1,north,5.2,No
2013/10/20,00:10,2.7,4.8,5.4,4.9,5.0,2.7,2.9,3.1,north,4.4,No
2013/10/20,00:20,2.7,4.8,5.4,4.9,5.0,2.7,2.9,3.1,north,4.1,No
2013/10/20,00:30,2.7,4.8,5.4,4.9,5.0,2.7,2.9,3.1,north-northwest,4.3,No
2013/10/20,00:40,2.7,4.8,5.4,4.9,5.1,2.7,2.9,3.1,north,3.8,No
2013/10/20,00:50,2.7,4.8,5.4,4.9,5.1,2.7,2.9,3.1,north,4.0,No
2013/10/20,01:00,2.7,4.8,5.4,4.9,5.1,2.7,2.9,3.1,north,4.4,No
2013/10/20,01:10,2.7,4.8,5.4,4.9,5.1,2.7,2.9,3.1,north,4.3,No
2013/10/20,01:20,2.7,4.8,5.4,4.8,5.1,2.7,2.9,3.1,north,4.3,No
2013/10/20,01:30,2.7,4.8,5.4,4.8,5.1,2.7,2.9,3.1,north,4.2,No
2013/10/20,01:40,2.7,4.8,5.4,4.9,5.0,2.7,2.9,3.1,north,4.3,No
2013/10/20,01:50,2.7,4.8,5.4,4.9,5.0,2.7,2.9,3.1,north,4.2,No
2013/10/20,02:00,2.7,4.8,5.4,4.8,5.0,2.7,2.9,3.1,north-northeast,3.7,No
2013/10/20,02:10,2.7,4.8,5.4,4.9,5.1,2.7,2.9,3.1,north-northeast,3.9,No
2013/10/20,02:20,2.7,4.8,5.4,4.9,5.0,2.7,2.9,3.1,north,3.4,No
2013/10/20,02:30,2.7,4.8,5.4,4.9,5.1,2.7,2.9,3.1,north-northeast,4.6,No
2013/10/20,02:40,2.7,4.8,5.4,4.9,5.1,2.7,2.9,3.1,north,4.3,No
2013/10/20,02:50,2.7,4.8,5.4,4.9,5.1,2.7,2.9,3.1,north-northeast,3.4,No
2013/10/20,03:00,2.7,4.8,5.4,4.9,5.1,2.7,2.9,3.1,north,3.9,No
2013/10/20,03:10,2.7,4.8,5.4,4.9,5.1,2.7,2.9,3.1,north,3.3,No
2013/10/20,03:20,2.7,4.8,5.4,4.9,5.1,2.7,2.9,3.1,north,3.6,No
2013/10/20,03:30,2.7,4.8,5.4,4.9,5.1,2.7,2.9,3.1,northeast,4.0,No
2013/10/20,03:40,2.7,4.8,5.4,4.9,5.1,2.7,2.9,3.1,northeast,4.6,No
2013/10/20,03:50,2.7,4.8,5.4,4.9,5.1,2.7,2.9,3.1,east-northeast,4.1,No
2013/10/20,04:00,2.7,4.8,5.4,4.9,5.1,2.7,2.9,3.1,north-northeast,3.4,No
2013/10/20,04:10,2.7,4.8,5.4,4.9,5.1,2.7,2.9,3.1,northeast,4.8,No
2013/10/20,04:20,2.7,4.8,5.4,4.9,5.1,2.7,2.9,3.1,northeast,3.9,No
2013/10/20,04:30,2.7,4.8,5.4,4.9,5.1,2.7,2.9,3.1,northeast,4.2,No
2013/10/20,04:40,2.7,4.8,5.4,4.9,5.1,2.7,2.9,3.1,northeast,3.1,No
2013/10/20,04:50,2.7,4.8,5.4,4.9,5.1,2.7,2.9,3.1,northeast,3.7,No
2013/10/20,05:00,2.7,4.8,5.4,4.9,5.1,2.7,2.9,3.1,northeast,4.6,No
2013/10/20,05:10,2.7,4.8,5.4,4.9,5.1,2.7,2.9,3.1,northeast,4.7,No
2013/10/20,05:20,2.7,4.8,5.4,4.9,5.1,2.7,2.9,3.1,northeast,4.6,No
2013/10/20,05:30,2.7,4.8,5.4,4.9,5.1,2.7,2.9,3.1,northeast,4.1,No
2013/10/20,05:40,2.7,4.8,5.4,4.9,5.1,2.7,2.9,3.1,northeast,5.7,No
2013/10/20,05:50,2.7,4.8,5.4,4.9,5.1,2.7,2.9,3.1,north-northeast,4.5,No
2013/10/20,06:00,2.7,4.8,5.4,4.9,5.1,2.7,2.9,3.1,northeast,5.0,No
2013/10/20,06:10,2.7,4.8,5.4,4.9,5.1,2.7,2.9,3.1,northeast,6.1,No
2013/10/20,06:20,2.7,4.8,5.4,4.9,5.1,2.7,2.9,3.1,northeast,5.8,No
2013/10/20,06:30,2.7,4.8,5.4,4.9,5.1,2.7,2.9,3.1,northeast,5.8,No
2013/10/20,06:40,2.7,4.8,5.4,4.9,5.1,2.7,2.9,3.1,northeast,6.1,No
2013/10/20,06:50,2.7,4.8,5.4,4.9,5.1,2.7,2.9,3.1,northeast,5.6,No
2013/10/20,07:00,2.7,4.8,5.4,4.9,5.1,2.7,2.9,3.1,northeast,5.6,No
2013/10/20,07:10,2.7,4.8,5.4,4.9,5.1,2.7,2.9,3.1,northeast,5.0,No
2013/10/20,07:20,2.7,4.8,5.4,4.9,5.1,2.7,2.9,3.1,northeast,5.8,No
2013/10/20,07:30,2.7,4.8,5.4,4.9,5.1,2.7,2.9,3.1,northeast,6.1,No
2013/10/20,07:40,2.7,4.8,5.4,4.9,5.1,2.7,2.9,3.1,northeast,5.3,No
2013/10/20,07:50,2.7,4.8,5.4,4.9,5.1,2.7,2.9,3.1,north-northeast,6.5,Yes
2013/10/20,08:00,2.7,4.8,5.4,4.9,5.1,2.7,2.9,3.1,north-northeast,6.1,No
2013/10/20,08:10,2.7,4.8,5.4,4.9,5.1,2.7,2.9,3.1,north-northeast,6.7,No
2013/10/20,08:20,2.7,4.8,5.4,4.9,5.1,2.7,2.9,3.1,north-northeast,5.8,No
2013/10/20,08:30,2.7,4.8,5.4,4.9,5.1,2.7,2.9,3.1,north-northeast,6.5,Yes
2013/10/20,08:40,2.7,4.8,5.4,4.9,5.1,2.7,2.9,3.1,northeast,6.0,Yes
2013/10/20,08:50,2.7,4.8,5.4,4.9,5.1,2.7,2.9,3.1,north-northeast,6.2,Yes
2013/10/20,09:00,2.7,4.8,5.4,4.9,5.1,2.7,2.9,3.1,north-northeast,5.4,Yes
2013/10/20,09:10,2.7,4.8,5.4,4.9,5.1,2.7,2.9,3.1,north-northeast,5.1,Yes
2013/10/20,09:20,2.7,4.8,5.4,4.9,5.1,2.7,2.9,3.1,north,4.2,Yes
2013/10/20,09:30,2.7,4.8,5.4,4.9,5.1,2.7,2.9,3.1,north-northwest,5.0,Yes
2013/10/20,09:40,2.7,4.8,5.4,4.9,5.1,2.7,2.9,3.1,north,4.6,Yes
2013/10/20,09:50,2.7,4.8,5.4,4.9,5.1,2.7,2.9,3.1,north-northwest,5.8,Yes
2013/10/20,10:00,2.7,4.8,5.4,4.9,5.1,2.7,2.9,3.1,north,6.3,Yes
2013/10/20,10:10,2.7,4.8,5.4,4.8,5.0,2.7,2.9,3.1,north-northwest,6.9,Yes
2013/10/20,10:20,2.7,4.8,5.4,4.8,5.0,2.7,2.9,3.1,north-northwest,7.4,Yes
2013/10/20,10:30,2.7,4.8,5.4,4.8,5.0,2.7,2.9,3.1,north-northwest,6.8,Yes
2013/10/20,10:40,2.7,4.8,5.4,4.8,5.0,2.7,2.9,3.1,north-northwest,7.2,Yes
2013/10/20,10:50,2.7,4.7,5.4,4.8,5.0,2.7,2.9,3.1,north-northwest,7.2,Yes
2013/10/20,11:00,2.6,4.7,5.3,4.8,5.0,2.7,2.9,3.1,north-northwest,7.1,Yes
2013/10/20,11:10,2.6,4.7,5.3,4.8,5.0,2.7,2.9,3.1,north-northwest,6.8,Yes
2013/10/20,11:20,2.6,4.7,5.3,4.8,5.0,2.7,2.9,3.1,north-northwest,8.2,Yes
2013/10/20,11:30,2.6,4.7,5.3,4.8,4.9,2.7,2.9,3.0,north-northwest,7.7,Yes
2013/10/20,11:40,2.6,4.7,5.3,4.8,4.9,2.7,2.9,3.0,north-northwest,8.5,Yes
2013/10/20,11:50,2.6,4.7,5.3,4.7,4.9,2.6,2.9,3.0,north,7.1,Yes
2013/10/20,12:00,2.6,4.6,5.3,4.7,4.9,2.6,2.9,3.0,north,8.3,Yes
2013/10/20,12:10,2.6,4.6,5.3,4.7,4.9,2.6,2.9,3.0,north,7.4,Yes
2013/10/20,12:20,2.6,4.6,5.3,4.7,4.9,2.6,2.9,3.0,north,7.7,Yes
2013/10/20,12:30,2.6,4.6,5.2,4.7,4.9,2.6,2.9,3.0,north-northwest,7.9,Yes
2013/10/20,12:40,2.6,4.6,5.2,4.7,4.9,2.6,2.9,3.0,north,7.7,Yes
2013/10/20,12:50,2.6,4.6,5.2,4.7,4.8,2.6,2.9,3.0,north-northwest,8.0,Yes
2013/10/20,13:00,2.6,4.5,5.2,4.6,4.8,2.6,2.9,3.0,north-northwest,9.0,Yes
2013/10/20,13:10,2.6,4.5,5.1,4.6,4.8,2.6,2.9,3.0,north-northwest,7.5,Yes
2013/10/20,13:20,2.6,4.5,5.1,4.6,4.8,2.6,2.9,3.0,north-northwest,7.6,Yes
2013/10/20,13:30,2.6,4.5,5.1,4.6,4.8,2.6,2.9,3.0,north-northwest,8.5,Yes
2013/10/20,13:40,2.5,4.5,5.1,4.6,4.7,2.6,2.9,3.0,north-northwest,8.0,Yes
2013/10/20,13:50,2.5,4.5,5.1,4.6,4.7,2.6,2.8,3.0,north,7.7,Yes
2013/10/20,14:00,2.5,4.4,5.1,4.6,4.7,2.6,2.8,3.0,north-northwest,8.8,Yes
2013/10/20,14:10,2.5,4.4,5.0,4.5,4.6,2.5,2.8,3.0,north-northeast,5.1,Yes
2013/10/20,14:20,2.5,4.3,5.0,4.5,4.6,2.5,2.8,3.0,north,9.1,Yes
2013/10/20,14:30,2.5,4.3,5.0,4.5,4.5,2.5,2.8,3.0,-,CALM,Yes
2013/10/20,14:40,2.5,4.3,5.0,4.5,4.5,2.5,2.8,2.9,north,9.0,Yes
2013/10/20,14:50,2.5,4.3,5.0,4.5,4.5,2.5,2.8,2.9,north-northeast,5.4,Yes
2013/10/20,15:00,2.5,4.3,4.9,4.5,4.4,2.5,2.8,2.9,north,3.7,Yes
2013/10/20,15:10,2.5,4.3,4.9,4.5,4.4,2.5,2.8,2.9,north-northwest,20.6,Yes
2013/10/20,15:20,2.5,4.3,4.9,4.5,4.3,2.5,2.8,2.9,-,CALM,Yes
2013/10/20,15:30,2.5,4.3,4.8,4.5,4.3,2.5,2.7,2.9,-,CALM,Yes
2013/10/20,15:40,2.5,4.3,4.8,4.4,4.2,2.5,2.7,2.9,-,CALM,Yes
2013/10/20,15:50,2.5,4.2,4.7,4.4,4.1,2.5,2.7,2.9,-,CALM,Yes
2013/10/20,16:00,2.5,4.2,4.7,4.4,4.0,2.5,2.7,2.8,-,CALM,Yes
2013/10/20,16:10,2.5,4.2,4.6,4.4,3.9,2.5,2.7,2.8,-,CALM,Yes
2013/10/20,16:20,2.5,4.2,4.6,4.4,3.9,2.5,2.7,2.8,-,CALM,Yes
2013/10/20,16:30,2.5,4.2,4.5,4.4,3.8,2.5,2.7,2.8,-,CALM,Yes
2013/10/20,16:40,2.5,4.2,4.5,4.4,3.8,2.5,2.7,2.8,-,CALM,Yes
2013/10/20,16:50,2.5,4.2,4.5,4.4,3.8,2.5,2.7,2.8,-,CALM,Yes
2013/10/20,17:00,2.5,4.2,4.5,4.4,3.8,2.5,2.7,2.8,-,CALM,Yes
2013/10/20,17:10,2.5,4.2,4.5,4.4,3.8,2.5,2.7,2.8,-,CALM,Yes
2013/10/20,17:20,2.5,4.3,4.5,4.4,3.8,2.5,2.7,2.8,-,CALM,Yes
2013/10/20,17:30,2.5,4.3,4.5,4.4,3.8,2.5,2.7,2.8,-,CALM,Yes
2013/10/20,17:40,2.5,4.3,4.5,4.4,3.8,2.5,2.7,2.8,-,CALM,Yes
2013/10/20,17:50,2.5,4.3,4.6,4.4,3.9,2.5,2.7,2.8,-,CALM,Yes
2013/10/20,18:00,2.5,4.3,4.6,4.4,3.9,2.5,2.7,2.8,-,CALM,Yes
2013/10/20,18:10,2.5,4.3,4.6,4.4,3.9,2.5,2.7,2.9,north-northeast,14.6,Yes
2013/10/20,18:20,2.5,4.3,4.6,4.4,3.9,2.5,2.7,2.9,-,CALM,Yes
2013/10/20,18:30,2.5,4.3,4.6,4.4,4.0,2.5,2.7,2.9,-,CALM,Yes
2013/10/20,18:40,2.5,4.3,4.6,4.4,3.9,2.5,2.7,2.9,-,CALM,Yes
2013/10/20,18:50,2.5,4.3,4.6,4.4,3.9,2.4,2.7,2.9,-,CALM,Yes
2013/10/20,19:00,2.5,4.3,4.6,4.4,3.9,2.4,2.7,2.9,-,CALM,Yes
2013/10/20,19:10,2.5,4.3,4.6,4.4,3.9,2.4,2.7,2.9,-,CALM,Yes
2013/10/20,19:20,2.5,4.3,4.6,4.4,3.9,2.4,2.7,2.9,north-northwest,9.4,Yes
2013/10/20,19:30,2.5,4.3,4.6,4.4,4.0,2.4,2.7,2.9,north-northwest,11.2,Yes
2013/10/20,19:40,2.5,4.3,4.6,4.4,4.0,2.4,2.7,2.9,north-northwest,9.1,Yes
2013/10/20,19:50,2.5,4.3,4.6,4.4,3.9,2.4,2.7,2.9,north-northwest,11.3,Yes
2013/10/20,20:00,2.5,4.3,4.6,4.4,3.9,2.4,2.7,2.8,north-northwest,11.9,Yes
2013/10/20,20:10,2.5,4.3,4.6,4.4,4.0,2.4,2.7,2.9,north-northwest,9.4,Yes
2013/10/20,20:20,2.5,4.3,4.7,4.4,4.0,2.4,2.7,2.9,north-northwest,10.5,Yes
2013/10/20,20:30,2.5,4.4,4.7,4.5,4.0,2.4,2.7,2.9,north-northwest,9.9,Yes
2013/10/20,20:40,2.5,4.4,4.7,4.5,4.1,2.4,2.7,2.9,north-northwest,10.1,Yes
2013/10/20,20:50,2.5,4.4,4.8,4.5,4.1,2.5,2.7,2.9,north-northwest,9.3,Yes
2013/10/20,21:00,2.5,4.4,4.8,4.5,4.1,2.5,2.8,2.9,north-northwest,8.8,Yes
2013/10/20,21:10,2.5,4.4,4.8,4.5,4.2,2.5,2.8,2.9,north-northwest,9.9,Yes
2013/10/20,21:20,2.5,4.5,4.8,4.5,4.2,2.5,2.8,2.9,north-northwest,9.3,Yes
2013/10/20,21:30,2.5,4.5,4.9,4.5,4.2,2.5,2.8,2.9,north-northwest,8.0,Yes
2013/10/20,21:40,2.6,4.5,4.9,4.6,4.2,2.5,2.8,2.9,north-northwest,9.9,Yes
2013/10/20,21:50,2.6,4.5,4.9,4.6,4.3,2.5,2.8,2.9,north-northwest,6.4,Yes
2013/10/20,22:00,2.6,4.5,4.9,4.6,4.3,2.5,2.8,2.9,north-northwest,10.8,Yes
2013/10/20,22:10,2.6,4.5,4.9,4.6,4.3,2.5,2.8,2.9,north-northwest,8.0,Yes
2013/10/20,22:20,2.6,4.5,4.9,4.6,4.3,2.5,2.8,2.9,northwest,9.0,Yes
2013/10/20,22:30,2.6,4.5,4.9,4.6,4.3,2.5,2.8,2.9,northwest,8.6,Yes
2013/10/20,22:40,2.6,4.5,4.9,4.6,4.3,2.5,2.8,2.9,northwest,9.6,Yes
2013/10/20,22:50,2.6,4.5,5.0,4.6,4.4,2.5,2.8,2.9,northwest,8.9,No
2013/10/20,23:00,2.6,4.5,5.0,4.6,4.4,2.5,2.8,2.9,northwest,10.1,Yes
2013/10/20,23:10,2.6,4.5,5.0,4.6,4.4,2.5,2.8,2.9,northwest,9.6,Yes
2013/10/20,23:20,2.6,4.5,5.0,4.6,4.4,2.5,2.8,2.9,northwest,9.3,Yes
2013/10/20,23:30,2.6,4.5,5.0,4.6,4.4,2.5,2.8,3.0,northwest,8.2,No
2013/10/20,23:40,2.6,4.5,5.0,4.6,4.4,2.5,2.8,3.0,northwest,7.8,No
2013/10/20,23:50,2.6,4.5,5.0,4.6,4.4,2.5,2.8,3.0,northwest,9.3,No
